When you browse on this site, cookies collect data to enhance your experience and personalize the content and advertising you see.
Visit our Privacy Policy to learn more. By continuing to use the site, you agree to this use of cookies and data.
  • In Hungary
  • List of Countries
  • For 7 days
  • Water Temperature
  • Satellite Maps
  • Weather Map
  • News
  • Weather Widgets
  • user-avatar
    Login

    Hourly Weather Sandin

    Today, 21 November, Wednesday

    Time Temperature Precipitation Wind Pressure Humidity
    00:00 -4°C° 0.1 mm 3 mps 746 mmHg 95%
    01:00 -4°C° 0.1 mm 3 mps 745 mmHg 95%
    02:00 -5°C° 0.1 mm 3 mps 745 mmHg 95%
    03:00 -5°C° 0.1 mm 3 mps 745 mmHg 95%
    04:00 -5°C° 0 mm 3 mps 744 mmHg 95%
    05:00 -5°C° 0 mm 3 mps 744 mmHg 95%
    06:00 -5°C° 0 mm 3 mps 744 mmHg 95%
    07:00 -5°C° 0 mm 3 mps 743 mmHg 95%
    08:00 -5°C° 0 mm 3 mps 743 mmHg 93%
    09:00 -5°C° 0 mm 4 mps 742 mmHg 92%
    10:00 -5°C° 0 mm 4 mps 741 mmHg 91%
    11:00 -4°C° 0 mm 4 mps 741 mmHg 89%
    12:00 -5°C° 0 mm 5 mps 740 mmHg 87%
    13:00 -5°C° 0 mm 5 mps 740 mmHg 85%
    14:00 -5°C° 0.2 mm 5 mps 739 mmHg 86%
    15:00 -5°C° 0.2 mm 5 mps 739 mmHg 88%
    16:00 -5°C° 0.2 mm 6 mps 738 mmHg 89%
    17:00 -5°C° 0.3 mm 6 mps 738 mmHg 90%
    18:00 -6°C° 0.3 mm 6 mps 737 mmHg 90%
    19:00 -6°C° 0.3 mm 6 mps 737 mmHg 90%
    20:00 -6°C° 0.2 mm 6 mps 736 mmHg 90%
    21:00 -6°C° 0.2 mm 5 mps 736 mmHg 89%
    22:00 -7°C° 0.2 mm 5 mps 735 mmHg 89%
    23:00 -7°C° 0 mm 5 mps 735 mmHg 89%

    Tomorrow, 22 November, Thursday

    Time Temperature Precipitation Wind Pressure Humidity
    00:00 -7°C° 0 mm 5 mps 735 mmHg 90%
    01:00 -7°C° 0 mm 5 mps 735 mmHg 90%
    02:00 -7°C° 0 mm 5 mps 735 mmHg 89%
    03:00 -8°C° 0 mm 5 mps 735 mmHg 88%
    04:00 -8°C° 0 mm 5 mps 735 mmHg 87%
    05:00 -10°C° 0 mm 5 mps 736 mmHg 88%
    06:00 -9°C° 0 mm 4 mps 736 mmHg 89%
    07:00 -10°C° 0 mm 4 mps 736 mmHg 89%
    08:00 -10°C° 0 mm 4 mps 737 mmHg 88%
    09:00 -10°C° 0 mm 4 mps 737 mmHg 87%
    10:00 -11°C° 0 mm 5 mps 737 mmHg 86%
    11:00 -10°C° 0 mm 5 mps 737 mmHg 84%
    12:00 -10°C° 0 mm 5 mps 737 mmHg 83%
    13:00 -10°C° 0 mm 5 mps 737 mmHg 82%
    14:00 -10°C° 0 mm 5 mps 737 mmHg 82%
    15:00 -9°C° 0 mm 4 mps 737 mmHg 82%
    16:00 -9°C° 0 mm 4 mps 737 mmHg 83%
    17:00 -10°C° 0 mm 5 mps 737 mmHg 83%
    18:00 -10°C° 0 mm 5 mps 737 mmHg 84%
    19:00 -10°C° 0 mm 5 mps 737 mmHg 85%
    20:00 -10°C° 0 mm 6 mps 736 mmHg 87%
    21:00 -11°C° 0 mm 6 mps 736 mmHg 88%
    22:00 -11°C° 0 mm 6 mps 736 mmHg 90%
    23:00 -11°C° 0 mm 6 mps 735 mmHg 90%

    Day after tomorrow, 23 November, Friday

    Time Temperature Precipitation Wind Pressure Humidity
    00:00 -11°C° 0 mm 6 mps 735 mmHg 89%
    01:00 -12°C° 0 mm 7 mps 734 mmHg 89%
    02:00 -12°C° 0 mm 7 mps 734 mmHg 88%
    03:00 -12°C° 0 mm 7 mps 733 mmHg 88%
    04:00 -11°C° 0 mm 8 mps 732 mmHg 87%
    05:00 -11°C° 0.3 mm 8 mps 731 mmHg 88%
    06:00 -11°C° 0.3 mm 8 mps 730 mmHg 89%
    07:00 -11°C° 0.3 mm 9 mps 730 mmHg 89%
    08:00 -10°C° 0.3 mm 8 mps 730 mmHg 89%
    09:00 -10°C° 0.3 mm 8 mps 729 mmHg 88%
    10:00 -10°C° 0.3 mm 8 mps 729 mmHg 87%
    11:00 -10°C° 0.2 mm 8 mps 729 mmHg 85%
    12:00 -11°C° 0.2 mm 8 mps 730 mmHg 82%
    13:00 -12°C° 0.2 mm 8 mps 730 mmHg 80%
    14:00 -13°C° 0 mm 7 mps 730 mmHg 80%
    15:00 -13°C° 0 mm 7 mps 731 mmHg 81%
    16:00 -14°C° 0 mm 6 mps 731 mmHg 82%
    17:00 -14°C° 0 mm 6 mps 732 mmHg 84%
    18:00 -14°C° 0 mm 6 mps 732 mmHg 86%
    19:00 -15°C° 0 mm 6 mps 733 mmHg 88%
    20:00 -14°C° 0.2 mm 7 mps 733 mmHg 88%
    21:00 -13°C° 0.2 mm 8 mps 734 mmHg 87%
    22:00 -14°C° 0.2 mm 9 mps 735 mmHg 86%
    23:00 -14°C° 0.1 mm 9 mps 736 mmHg 85%

    24 November, Saturday

    Time Temperature Precipitation Wind Pressure Humidity
    00:00 -15°C° 0.1 mm 9 mps 737 mmHg 83%
    01:00 -17°C° 0.1 mm 10 mps 738 mmHg 82%
    02:00 -16°C° 0 mm 9 mps 739 mmHg 82%
    03:00 -17°C° 0 mm 9 mps 740 mmHg 82%
    04:00 -19°C° 0 mm 9 mps 741 mmHg 83%
    05:00 -18°C° 0 mm 8 mps 743 mmHg 85%
    06:00 -17°C° 0 mm 6 mps 744 mmHg 87%
    07:00 -17°C° 0 mm 5 mps 745 mmHg 89%
    08:00 -15°C° 0 mm 5 mps 746 mmHg 89%
    09:00 -15°C° 0 mm 5 mps 746 mmHg 90%
    10:00 -14°C° 0 mm 5 mps 747 mmHg 90%
    11:00 -14°C° 0 mm 5 mps 747 mmHg 89%
    12:00 -13°C° 0 mm 5 mps 748 mmHg 87%
    13:00 -12°C° 0 mm 6 mps 748 mmHg 86%
    14:00 -12°C° 0 mm 6 mps 748 mmHg 86%
    15:00 -12°C° 0 mm 5 mps 748 mmHg 86%
    16:00 -13°C° 0 mm 5 mps 749 mmHg 86%
    17:00 -12°C° 0 mm 6 mps 749 mmHg 85%
    18:00 -12°C° 0 mm 6 mps 749 mmHg 85%
    19:00 -13°C° 0 mm 7 mps 749 mmHg 85%
    20:00 -13°C° 0 mm 7 mps 748 mmHg 84%
    21:00 -13°C° 0 mm 7 mps 748 mmHg 83%
    22:00 -13°C° 0 mm 7 mps 748 mmHg 82%
    23:00 -13°C° 0 mm 7 mps 748 mmHg 81%

    25 November, Sunday

    Time Temperature Precipitation Wind Pressure Humidity
    00:00 -13°C° 0 mm 7 mps 748 mmHg 81%
    01:00 -12°C° 0 mm 7 mps 748 mmHg 80%
    02:00 -12°C° 0 mm 7 mps 748 mmHg 80%
    03:00 -12°C° 0 mm 7 mps 747 mmHg 80%
    04:00 -12°C° 0 mm 7 mps 747 mmHg 80%
    05:00 -12°C° 0 mm 7 mps 747 mmHg 81%
    06:00 -12°C° 0 mm 7 mps 747 mmHg 81%
    07:00 -13°C° 0 mm 7 mps 747 mmHg 81%
    08:00 -12°C° 0 mm 7 mps 747 mmHg 81%
    09:00 -12°C° 0 mm 7 mps 746 mmHg 81%
    10:00 -12°C° 0 mm 7 mps 746 mmHg 81%
    11:00 -11°C° 0.1 mm 7 mps 746 mmHg 81%
    12:00 -11°C° 0.1 mm 7 mps 746 mmHg 82%
    13:00 -9°C° 0.1 mm 7 mps 746 mmHg 83%
    14:00 -9°C° 0.2 mm 7 mps 747 mmHg 84%
    15:00 -9°C° 0.2 mm 6 mps 747 mmHg 86%
    16:00 -8°C° 0.2 mm 5 mps 747 mmHg 88%
    17:00 -8°C° 0.2 mm 5 mps 747 mmHg 89%
    18:00 -8°C° 0.2 mm 4 mps 747 mmHg 89%
    19:00 -8°C° 0.2 mm 4 mps 747 mmHg 90%
    20:00 -8°C° 0.1 mm 3 mps 747 mmHg 91%
    21:00 -8°C° 0.1 mm 3 mps 747 mmHg 91%
    22:00 -8°C° 0.1 mm 3 mps 747 mmHg 91%
    23:00 -8°C° 0.1 mm 3 mps 747 mmHg 91%

    26 November, Monday

    Time Temperature Precipitation Wind Pressure Humidity
    00:00 -9°C° 0.1 mm 3 mps 747 mmHg 91%
    01:00 -9°C° 0.1 mm 3 mps 747 mmHg 91%
    02:00 -8°C° 0 mm 3 mps 747 mmHg 93%
    03:00 -8°C° 0 mm 3 mps 747 mmHg 94%
    04:00 -8°C° 0 mm 3 mps 746 mmHg 95%
    05:00 -8°C° 0 mm 4 mps 746 mmHg 95%
    06:00 -7°C° 0 mm 5 mps 746 mmHg 95%
    07:00 -6°C° 0 mm 5 mps 746 mmHg 94%
    08:00 -6°C° 0 mm 6 mps 746 mmHg 93%
    09:00 -5°C° 0 mm 6 mps 746 mmHg 92%
    10:00 -5°C° 0 mm 6 mps 746 mmHg 91%
    11:00 -5°C° 0 mm 6 mps 745 mmHg 90%
    12:00 -6°C° 0 mm 7 mps 745 mmHg 89%
    13:00 -6°C° 0 mm 7 mps 744 mmHg 88%
    14:00 -6°C° 0 mm 7 mps 744 mmHg 87%
    15:00 -6°C° 0 mm 6 mps 744 mmHg 87%
    16:00 -6°C° 0 mm 6 mps 743 mmHg 86%
    17:00 -6°C° 0 mm 6 mps 743 mmHg 85%
    18:00 -6°C° 0 mm 6 mps 742 mmHg 83%
    19:00 -7°C° 0 mm 7 mps 742 mmHg 82%
    20:00 -7°C° 0 mm 7 mps 741 mmHg 82%
    21:00 -7°C° 0 mm 7 mps 741 mmHg 82%
    22:00 -7°C° 0 mm 7 mps 740 mmHg 82%
    23:00 -7°C° 0 mm 7 mps 739 mmHg 83%
    Show more